GLD1974 SOCA-TNCB

Flight info

Callsign GLD1974
Flight time 2h 34m
Altitude 38000
Route DABRA1A DABRA DCT ZY UG443 CBC UL304 OPSEN DCT BONAX BONAX1N
Aircraft A319/M-SDE3FGHIRWY/LB1

Departure

Time 2026-05-05 13:51
Airport Cayenne – Félix Eboué Airport (SOCA)

Arrival

Time 2026-05-05 16:25
Airport Flamingo International Airport (TNCB)
Time Latitude Longitude Altitude Speed Heading
2026-05-05 13:36 4.82189 -52.36308 30 ft 0 kts 336°
2026-05-05 13:44 4.82184 -52.36306 30 ft 2 kts 336°
2026-05-05 13:44 4.82169 -52.36299 30 ft 2 kts 336°
2026-05-05 13:44 4.82154 -52.36293 30 ft 2 kts 336°
2026-05-05 13:44 4.82139 -52.36286 29 ft 2 kts 336°
2026-05-05 13:45 4.82124 -52.36280 29 ft 2 kts 336°
2026-05-05 13:45 4.82110 -52.36272 29 ft 2 kts 301°
2026-05-05 13:45 4.82108 -52.36257 29 ft 2 kts 245°
2026-05-05 13:45 4.82115 -52.36242 29 ft 2 kts 243°
2026-05-05 13:46 4.82116 -52.36239 29 ft 0 kts 245°
2026-05-05 13:46 4.82110 -52.36250 29 ft 3 kts 238°
2026-05-05 13:47 4.82075 -52.36258 29 ft 8 kts 172°
2026-05-05 13:47 4.82004 -52.36228 29 ft 13 kts 155°
2026-05-05 13:47 4.81927 -52.36259 29 ft 14 kts 243°
2026-05-05 13:47 4.81883 -52.36357 28 ft 17 kts 245°
2026-05-05 13:48 4.81833 -52.36465 28 ft 18 kts 245°
2026-05-05 13:48 4.81779 -52.36580 28 ft 19 kts 245°
2026-05-05 13:48 4.81721 -52.36705 28 ft 21 kts 245°
2026-05-05 13:48 4.81658 -52.36839 29 ft 21 kts 245°
2026-05-05 13:49 4.81596 -52.36974 28 ft 22 kts 245°
2026-05-05 13:49 4.81530 -52.37114 27 ft 23 kts 245°
2026-05-05 13:49 4.81463 -52.37258 27 ft 20 kts 246°
2026-05-05 13:49 4.81425 -52.37374 27 ft 8 kts 208°
2026-05-05 13:50 4.81419 -52.37358 29 ft 4 kts 84°
2026-05-05 13:50 4.81427 -52.37337 30 ft 0 kts 66°
2026-05-05 13:50 4.81442 -52.37302 27 ft 26 kts 65°
2026-05-05 13:50 4.81644 -52.36869 29 ft 109 kts 65°
2026-05-05 13:51 4.82048 -52.36018 328 ft 146 kts 65°
2026-05-05 13:51 4.82479 -52.35070 1096 ft 150 kts 65°
2026-05-05 13:51 4.82859 -52.34093 1967 ft 153 kts 71°
2026-05-05 13:51 4.83157 -52.32998 2545 ft 174 kts 74°
2026-05-05 13:52 4.83484 -52.31742 3046 ft 199 kts 75°
2026-05-05 13:52 4.83898 -52.30332 3660 ft 224 kts 66°
2026-05-05 13:52 4.84996 -52.29112 4318 ft 253 kts 32°
2026-05-05 13:52 4.86768 -52.28766 5271 ft 274 kts 357°
2026-05-05 13:53 4.88536 -52.29515 6294 ft 292 kts 323°
2026-05-05 13:53 4.89767 -52.31184 7287 ft 305 kts 295°
2026-05-05 13:53 4.90417 -52.33228 8324 ft 311 kts 283°
2026-05-05 13:53 4.90816 -52.35386 9402 ft 318 kts 278°
2026-05-05 13:54 4.91174 -52.37614 10320 ft 332 kts 279°
2026-05-05 13:54 4.91607 -52.39977 10847 ft 357 kts 281°
2026-05-05 13:54 4.92160 -52.42501 11338 ft 383 kts 283°
2026-05-05 13:54 4.92815 -52.45115 11985 ft 395 kts 285°
2026-05-05 13:55 4.93546 -52.47797 12780 ft 400 kts 286°
2026-05-05 13:55 4.94314 -52.50501 13669 ft 405 kts 287°
2026-05-05 13:55 4.94833 -52.52308 14249 ft 408 kts 287°
2026-05-05 13:55 4.95621 -52.55063 15056 ft 410 kts 286°
2026-05-05 13:56 4.96401 -52.57833 15855 ft 413 kts 286°
2026-05-05 13:56 4.97165 -52.60585 16572 ft 415 kts 286°
2026-05-05 13:56 4.97937 -52.63393 17268 ft 419 kts 285°
2026-05-05 13:56 4.98715 -52.66233 18083 ft 422 kts 285°
2026-05-05 13:57 4.99498 -52.69091 18703 ft 427 kts 285°
2026-05-05 13:57 5.00290 -52.71973 19327 ft 430 kts 285°
2026-05-05 13:57 5.01086 -52.74877 19879 ft 433 kts 285°
2026-05-05 13:57 5.01888 -52.77795 20503 ft 433 kts 285°
2026-05-05 13:58 5.02684 -52.80687 21043 ft 436 kts 285°
2026-05-05 13:58 5.03495 -52.83636 21533 ft 439 kts 284°
2026-05-05 13:58 5.04310 -52.86601 22092 ft 441 kts 284°
2026-05-05 13:58 5.05128 -52.89578 22575 ft 443 kts 284°
2026-05-05 13:59 5.06760 -52.95532 23599 ft 446 kts 283°
2026-05-05 13:59 5.07594 -52.98581 23996 ft 447 kts 284°
2026-05-05 14:00 5.09239 -53.04590 24755 ft 452 kts 284°
2026-05-05 14:00 5.10080 -53.07648 25115 ft 454 kts 284°
2026-05-05 14:00 5.10924 -53.10721 25475 ft 457 kts 283°
2026-05-05 14:00 5.11770 -53.13798 25825 ft 459 kts 284°
2026-05-05 14:01 5.12619 -53.16897 26176 ft 461 kts 284°
2026-05-05 14:01 5.13461 -53.19974 26517 ft 463 kts 284°
2026-05-05 14:01 5.14319 -53.23102 26857 ft 465 kts 284°
2026-05-05 14:01 5.15182 -53.26249 27195 ft 467 kts 284°
2026-05-05 14:02 5.16046 -53.29400 27547 ft 469 kts 284°
2026-05-05 14:02 5.16909 -53.32557 27874 ft 470 kts 284°
2026-05-05 14:02 5.17779 -53.35734 28210 ft 472 kts 284°
2026-05-05 14:02 5.18654 -53.38924 28519 ft 474 kts 284°
2026-05-05 14:03 5.19521 -53.42095 28835 ft 476 kts 284°
2026-05-05 14:03 5.20399 -53.45304 29138 ft 478 kts 284°
2026-05-05 14:03 5.21281 -53.48526 29472 ft 479 kts 284°
2026-05-05 14:03 5.22165 -53.51758 29831 ft 479 kts 284°
2026-05-05 14:04 5.23046 -53.54981 30244 ft 477 kts 284°
2026-05-05 14:04 5.23923 -53.58182 30646 ft 475 kts 284°
2026-05-05 14:04 5.24791 -53.61358 30960 ft 476 kts 284°
2026-05-05 14:04 5.25666 -53.64571 31274 ft 477 kts 284°
2026-05-05 14:05 5.26543 -53.67786 31594 ft 477 kts 283°
2026-05-05 14:05 5.27419 -53.71005 31927 ft 478 kts 283°
2026-05-05 14:05 5.28297 -53.74226 32279 ft 479 kts 284°
2026-05-05 14:05 5.29183 -53.77457 32657 ft 478 kts 283°
2026-05-05 14:06 5.30054 -53.80635 33048 ft 478 kts 283°
2026-05-05 14:06 5.30933 -53.83852 33434 ft 478 kts 283°
2026-05-05 14:06 5.31811 -53.87074 33824 ft 478 kts 283°
2026-05-05 14:06 5.32691 -53.90303 34213 ft 478 kts 283°
2026-05-05 14:07 5.33566 -53.93517 34599 ft 477 kts 283°
2026-05-05 14:07 5.34442 -53.96726 35010 ft 475 kts 283°
2026-05-05 14:07 5.35303 -53.99881 35443 ft 473 kts 283°
2026-05-05 14:07 5.36170 -54.03058 35904 ft 470 kts 283°
2026-05-05 14:08 5.37032 -54.06221 36370 ft 467 kts 283°
2026-05-05 14:08 5.37885 -54.09356 36847 ft 463 kts 283°
2026-05-05 14:08 5.38737 -54.12476 37282 ft 461 kts 284°
2026-05-05 14:08 5.39572 -54.15537 37686 ft 459 kts 284°
2026-05-05 14:09 5.40412 -54.18626 37992 ft 457 kts 284°
2026-05-05 14:09 5.41247 -54.21701 38058 ft 455 kts 283°
2026-05-05 14:09 5.42896 -54.27776 38057 ft 452 kts 284°
2026-05-05 14:10 5.44557 -54.33880 38056 ft 453 kts 284°
2026-05-05 14:10 5.46218 -54.39993 38058 ft 453 kts 283°
2026-05-05 14:11 5.47882 -54.46094 38056 ft 453 kts 283°
2026-05-05 14:11 5.49543 -54.52200 38062 ft 452 kts 284°
2026-05-05 14:12 5.51184 -54.58260 38054 ft 453 kts 284°
2026-05-05 14:12 5.52842 -54.64368 38059 ft 453 kts 284°
2026-05-05 14:13 5.54506 -54.70485 38067 ft 453 kts 284°
2026-05-05 14:13 5.56159 -54.76565 38070 ft 453 kts 284°
2026-05-05 14:14 5.57811 -54.82695 38064 ft 454 kts 284°
2026-05-05 14:14 5.59467 -54.88820 38068 ft 454 kts 284°
2026-05-05 14:15 5.61116 -54.94905 38077 ft 453 kts 284°
2026-05-05 14:15 5.62772 -55.01017 38081 ft 453 kts 284°
2026-05-05 14:16 5.64432 -55.07145 38065 ft 454 kts 284°
2026-05-05 14:16 5.66077 -55.13221 38068 ft 454 kts 284°
2026-05-05 14:17 5.67730 -55.19340 38074 ft 453 kts 284°
2026-05-05 14:17 5.69379 -55.25459 38069 ft 454 kts 284°
2026-05-05 14:18 5.71036 -55.31589 38070 ft 454 kts 284°
2026-05-05 14:18 5.72690 -55.37713 38074 ft 454 kts 284°
2026-05-05 14:19 5.74329 -55.43789 38076 ft 453 kts 284°
2026-05-05 14:19 5.75979 -55.49898 38072 ft 453 kts 284°
2026-05-05 14:20 5.77634 -55.56024 38073 ft 453 kts 284°
2026-05-05 14:20 5.79290 -55.62143 38081 ft 452 kts 284°
2026-05-05 14:21 5.80920 -55.68203 38085 ft 452 kts 284°
2026-05-05 14:21 5.82563 -55.74302 38077 ft 452 kts 284°
2026-05-05 14:22 5.84199 -55.80397 38074 ft 452 kts 284°
2026-05-05 14:22 5.85832 -55.86497 38081 ft 451 kts 284°
2026-05-05 14:23 5.87459 -55.92554 38077 ft 451 kts 284°
2026-05-05 14:23 5.89097 -55.98650 38072 ft 452 kts 284°
2026-05-05 14:24 5.90738 -56.04753 38079 ft 452 kts 284°
2026-05-05 14:24 5.92375 -56.10818 38083 ft 451 kts 284°
2026-05-05 14:25 5.94010 -56.16910 38079 ft 451 kts 284°
2026-05-05 14:25 5.95637 -56.22988 38072 ft 452 kts 284°
2026-05-05 14:26 5.97274 -56.29099 38075 ft 451 kts 284°
2026-05-05 14:26 5.98902 -56.35191 38078 ft 451 kts 284°
2026-05-05 14:27 6.00527 -56.41252 38078 ft 451 kts 284°
2026-05-05 14:27 6.02162 -56.47356 38077 ft 452 kts 284°
2026-05-05 14:28 6.03801 -56.53466 38079 ft 452 kts 284°
2026-05-05 14:28 6.05423 -56.59520 38081 ft 452 kts 284°
2026-05-05 14:29 6.07049 -56.65632 38083 ft 451 kts 284°
2026-05-05 14:29 6.08682 -56.71727 38083 ft 451 kts 285°
2026-05-05 14:30 6.10301 -56.77777 38089 ft 450 kts 284°
2026-05-05 14:30 6.11929 -56.83864 38087 ft 450 kts 284°
2026-05-05 14:31 6.13554 -56.89950 38081 ft 450 kts 284°
2026-05-05 14:31 6.15165 -56.95983 38082 ft 449 kts 284°
2026-05-05 14:32 6.16782 -57.02050 38086 ft 448 kts 284°
2026-05-05 14:32 6.18389 -57.08084 38083 ft 448 kts 284°
2026-05-05 14:33 6.20004 -57.14139 38072 ft 448 kts 284°
2026-05-05 14:33 6.21617 -57.20212 38077 ft 449 kts 284°
2026-05-05 14:34 6.23213 -57.26241 38083 ft 448 kts 284°
2026-05-05 14:34 6.24821 -57.32300 38073 ft 448 kts 284°
2026-05-05 14:35 6.26438 -57.38371 38069 ft 448 kts 284°
2026-05-05 14:35 6.28036 -57.44384 38068 ft 448 kts 284°
2026-05-05 14:36 6.29654 -57.50443 38071 ft 448 kts 285°
2026-05-05 14:36 6.30998 -57.55487 38068 ft 448 kts 284°
2026-05-05 14:37 6.32861 -57.62540 38062 ft 448 kts 284°
2026-05-05 14:37 6.34195 -57.67579 38063 ft 448 kts 284°
2026-05-05 14:38 6.35803 -57.73646 38058 ft 448 kts 285°
2026-05-05 14:38 6.37414 -57.79714 38053 ft 448 kts 285°
2026-05-05 14:39 6.39014 -57.85746 38056 ft 449 kts 284°
2026-05-05 14:39 6.40620 -57.91819 38065 ft 449 kts 284°
2026-05-05 14:40 6.42225 -57.97892 38064 ft 449 kts 284°
2026-05-05 14:40 6.43832 -58.03972 38067 ft 449 kts 284°
2026-05-05 14:41 6.45427 -58.10011 38073 ft 449 kts 285°
2026-05-05 14:41 6.47033 -58.16087 38075 ft 448 kts 285°
2026-05-05 14:42 6.48632 -58.22148 38074 ft 448 kts 285°
2026-05-05 14:42 6.50940 -58.27911 38065 ft 448 kts 301°
2026-05-05 14:43 6.54406 -58.33132 38064 ft 449 kts 303°
2026-05-05 14:43 6.57885 -58.38375 38063 ft 449 kts 303°
2026-05-05 14:44 6.61358 -58.43622 38062 ft 449 kts 303°
2026-05-05 14:44 6.64816 -58.48838 38064 ft 449 kts 303°
2026-05-05 14:45 6.68267 -58.54046 38068 ft 449 kts 303°
2026-05-05 14:45 6.71740 -58.59287 38072 ft 449 kts 303°
2026-05-05 14:46 6.75208 -58.64517 38076 ft 449 kts 303°
2026-05-05 14:46 6.78649 -58.69713 38073 ft 448 kts 303°
2026-05-05 14:47 6.82113 -58.74941 38072 ft 448 kts 303°
2026-05-05 14:47 6.85574 -58.80171 38079 ft 448 kts 303°
2026-05-05 14:48 6.89005 -58.85355 38079 ft 447 kts 303°
2026-05-05 14:48 6.92460 -58.90576 38080 ft 447 kts 303°
2026-05-05 14:49 6.95909 -58.95789 38076 ft 447 kts 303°
2026-05-05 14:49 6.99340 -59.00976 38075 ft 447 kts 303°
2026-05-05 14:50 7.02786 -59.06185 38073 ft 447 kts 302°
2026-05-05 14:50 7.06229 -59.11402 38074 ft 447 kts 302°
2026-05-05 14:51 7.09682 -59.16631 38075 ft 447 kts 302°
2026-05-05 14:51 7.13143 -59.21854 38072 ft 447 kts 303°
2026-05-05 14:52 7.16820 -59.26882 38072 ft 448 kts 307°
2026-05-05 14:52 7.20711 -59.31815 38078 ft 448 kts 306°
2026-05-05 14:53 7.24280 -59.36909 38084 ft 447 kts 303°
2026-05-05 14:53 7.27684 -59.42152 38086 ft 446 kts 302°
2026-05-05 14:54 7.31100 -59.47385 38083 ft 446 kts 303°
2026-05-05 14:54 7.34557 -59.52550 38083 ft 446 kts 303°
2026-05-05 14:55 7.38057 -59.57732 38081 ft 446 kts 303°
2026-05-05 14:55 7.41542 -59.62912 38083 ft 445 kts 303°
2026-05-05 14:56 7.44993 -59.68071 38083 ft 445 kts 303°
2026-05-05 14:56 7.48461 -59.73247 38089 ft 445 kts 303°
2026-05-05 14:57 7.51908 -59.78394 38088 ft 445 kts 303°
2026-05-05 14:57 7.55381 -59.83585 38085 ft 445 kts 303°
2026-05-05 14:58 7.58857 -59.88778 38078 ft 446 kts 302°
2026-05-05 14:58 7.62308 -59.93936 38071 ft 447 kts 302°
2026-05-05 14:59 7.65791 -59.99151 38073 ft 447 kts 302°
2026-05-05 14:59 7.69278 -60.04364 38074 ft 448 kts 302°
2026-05-05 15:00 7.72174 -60.08697 38077 ft 448 kts 302°
2026-05-05 15:00 7.76226 -60.14762 38080 ft 448 kts 302°
2026-05-05 15:01 7.79708 -60.19976 38082 ft 448 kts 303°
2026-05-05 15:01 7.83186 -60.25196 38085 ft 447 kts 303°
2026-05-05 15:02 7.86640 -60.30372 38085 ft 447 kts 303°
2026-05-05 15:02 7.90116 -60.35577 38085 ft 447 kts 303°
2026-05-05 15:03 7.93572 -60.40799 38088 ft 447 kts 303°
2026-05-05 15:03 7.97004 -60.45992 38087 ft 447 kts 304°
2026-05-05 15:04 8.00459 -60.51204 38083 ft 446 kts 304°
2026-05-05 15:04 8.03913 -60.56415 38082 ft 446 kts 304°
2026-05-05 15:05 8.09092 -60.64229 38071 ft 446 kts 304°
2026-05-05 15:06 8.12550 -60.69453 38069 ft 446 kts 304°
2026-05-05 15:06 8.16002 -60.74673 38069 ft 447 kts 304°
2026-05-05 15:07 8.19430 -60.79863 38076 ft 447 kts 304°
2026-05-05 15:07 8.22892 -60.85091 38078 ft 447 kts 304°
2026-05-05 15:08 8.26349 -60.90309 38077 ft 447 kts 304°
2026-05-05 15:08 8.29783 -60.95503 38080 ft 446 kts 304°
2026-05-05 15:09 8.33226 -61.00731 38084 ft 446 kts 304°
2026-05-05 15:09 8.36667 -61.05954 38075 ft 446 kts 304°
2026-05-05 15:10 8.40102 -61.11158 38071 ft 447 kts 304°
2026-05-05 15:10 8.43554 -61.16384 38078 ft 447 kts 304°
2026-05-05 15:11 8.47013 -61.21621 38082 ft 447 kts 304°
2026-05-05 15:11 8.50480 -61.26856 38084 ft 447 kts 304°
2026-05-05 15:12 8.53944 -61.32087 38080 ft 448 kts 304°
2026-05-05 15:12 8.57381 -61.37285 38083 ft 448 kts 304°
2026-05-05 15:13 8.60847 -61.42536 38083 ft 448 kts 304°
2026-05-05 15:13 8.64321 -61.47787 38077 ft 448 kts 304°
2026-05-05 15:14 8.67765 -61.53001 38079 ft 449 kts 305°
2026-05-05 15:14 8.71248 -61.58272 38074 ft 450 kts 305°
2026-05-05 15:15 8.74711 -61.63518 38076 ft 450 kts 305°
2026-05-05 15:15 8.78198 -61.68794 38077 ft 451 kts 305°
2026-05-05 15:16 8.81692 -61.74081 38074 ft 451 kts 305°
2026-05-05 15:16 8.85180 -61.79373 38073 ft 452 kts 305°
2026-05-05 15:17 8.88653 -61.84637 38076 ft 453 kts 305°
2026-05-05 15:17 8.92158 -61.89949 38080 ft 453 kts 305°
2026-05-05 15:18 8.95071 -61.94370 38075 ft 453 kts 305°
2026-05-05 15:18 8.98575 -61.99692 38078 ft 453 kts 305°
2026-05-05 15:19 9.02047 -62.04975 38076 ft 453 kts 305°
2026-05-05 15:19 9.05555 -62.10312 38071 ft 454 kts 305°
2026-05-05 15:20 9.09038 -62.15610 38064 ft 455 kts 305°
2026-05-05 15:20 9.12558 -62.20954 38063 ft 455 kts 305°
2026-05-05 15:21 9.16074 -62.26302 38059 ft 456 kts 305°
2026-05-05 15:21 9.19567 -62.31621 38064 ft 456 kts 305°
2026-05-05 15:22 9.23083 -62.36983 38063 ft 456 kts 305°
2026-05-05 15:22 9.26600 -62.42345 38064 ft 456 kts 306°
2026-05-05 15:23 9.30118 -62.47700 38064 ft 456 kts 305°
2026-05-05 15:23 9.33611 -62.53025 38062 ft 456 kts 305°
2026-05-05 15:24 9.37121 -62.58382 38062 ft 456 kts 305°
2026-05-05 15:24 9.40632 -62.63747 38061 ft 456 kts 306°
2026-05-05 15:25 9.44150 -62.69109 38054 ft 456 kts 306°
2026-05-05 15:25 9.47644 -62.74439 38050 ft 457 kts 306°
2026-05-05 15:26 9.51166 -62.79813 38052 ft 457 kts 306°
2026-05-05 15:26 9.54685 -62.85199 38055 ft 458 kts 306°
2026-05-05 15:27 9.58187 -62.90558 38056 ft 458 kts 306°
2026-05-05 15:27 9.61717 -62.95960 38062 ft 459 kts 306°
2026-05-05 15:28 9.65242 -63.01360 38064 ft 459 kts 306°
2026-05-05 15:28 9.68748 -63.06727 38064 ft 458 kts 306°
2026-05-05 15:29 9.72274 -63.12123 38075 ft 458 kts 306°
2026-05-05 15:29 9.74990 -63.18000 38076 ft 463 kts 288°
2026-05-05 15:30 9.76533 -63.24319 38078 ft 464 kts 286°
2026-05-05 15:30 9.78077 -63.30686 38082 ft 464 kts 286°
2026-05-05 15:31 9.79619 -63.37054 38085 ft 464 kts 286°
2026-05-05 15:31 9.81155 -63.43403 38088 ft 464 kts 286°
2026-05-05 15:32 9.82694 -63.49781 38096 ft 465 kts 286°
2026-05-05 15:32 9.84238 -63.56155 38099 ft 465 kts 286°
2026-05-05 15:33 9.85763 -63.62494 38100 ft 465 kts 286°
2026-05-05 15:33 9.87290 -63.68864 38100 ft 465 kts 286°
2026-05-05 15:34 9.88833 -63.75238 38103 ft 465 kts 286°
2026-05-05 15:34 9.90370 -63.81614 38106 ft 465 kts 286°
2026-05-05 15:35 9.91889 -63.87940 38110 ft 465 kts 286°
2026-05-05 15:35 9.93418 -63.94329 38112 ft 465 kts 286°
2026-05-05 15:36 9.94948 -64.00714 38110 ft 465 kts 286°
2026-05-05 15:36 9.96472 -64.07052 38108 ft 465 kts 286°
2026-05-05 15:37 9.98006 -64.13442 38100 ft 465 kts 286°
2026-05-05 15:37 9.99522 -64.19785 38103 ft 465 kts 286°
2026-05-05 15:38 10.01044 -64.26178 38090 ft 465 kts 286°
2026-05-05 15:38 10.02568 -64.32560 38090 ft 464 kts 286°
2026-05-05 15:39 10.04080 -64.38905 38078 ft 464 kts 285°
2026-05-05 15:39 10.05598 -64.45287 38076 ft 464 kts 285°
2026-05-05 15:40 10.07115 -64.51636 38073 ft 464 kts 285°
2026-05-05 15:40 10.08636 -64.58010 38073 ft 464 kts 285°
2026-05-05 15:41 10.10146 -64.64374 38069 ft 463 kts 285°
2026-05-05 15:41 10.11807 -64.70683 38078 ft 461 kts 291°
2026-05-05 15:42 10.13911 -64.76816 38078 ft 461 kts 291°
2026-05-05 15:42 10.16024 -64.82978 38075 ft 461 kts 291°
2026-05-05 15:43 10.18110 -64.89093 38068 ft 461 kts 291°
2026-05-05 15:43 10.20201 -64.95251 38063 ft 461 kts 291°
2026-05-05 15:44 10.22290 -65.01413 38057 ft 460 kts 291°
2026-05-05 15:44 10.24378 -65.07551 38057 ft 460 kts 291°
2026-05-05 15:45 10.26463 -65.13661 38059 ft 460 kts 291°
2026-05-05 15:45 10.28560 -65.19821 38065 ft 460 kts 291°
2026-05-05 15:46 10.30631 -65.25929 38062 ft 460 kts 291°
2026-05-05 15:46 10.32718 -65.32082 38056 ft 460 kts 291°
2026-05-05 15:47 10.34792 -65.38195 38066 ft 459 kts 291°
2026-05-05 15:47 10.36873 -65.44327 38066 ft 459 kts 291°
2026-05-05 15:48 10.38957 -65.50483 38062 ft 459 kts 291°
2026-05-05 15:48 10.41039 -65.56623 38062 ft 459 kts 291°
2026-05-05 15:49 10.43098 -65.62721 38057 ft 459 kts 291°
2026-05-05 15:49 10.45172 -65.68859 38063 ft 458 kts 291°
2026-05-05 15:50 10.47247 -65.74993 38064 ft 458 kts 291°
2026-05-05 15:50 10.49302 -65.81087 38065 ft 458 kts 291°
2026-05-05 15:51 10.51369 -65.87226 38063 ft 458 kts 290°
2026-05-05 15:51 10.53434 -65.93354 38056 ft 458 kts 291°
2026-05-05 15:52 10.55497 -65.99436 38057 ft 457 kts 292°
2026-05-05 15:52 10.58683 -66.04975 38058 ft 453 kts 312°
2026-05-05 15:53 10.63427 -66.09135 38064 ft 450 kts 327°
2026-05-05 15:53 10.68632 -66.12673 38063 ft 450 kts 327°
2026-05-05 15:54 10.73809 -66.16198 38069 ft 450 kts 327°
2026-05-05 15:54 10.79016 -66.19756 38062 ft 451 kts 327°
2026-05-05 15:55 10.84236 -66.23332 38061 ft 451 kts 326°
2026-05-05 15:55 10.89381 -66.26930 38065 ft 451 kts 326°
2026-05-05 15:56 10.94534 -66.30585 38062 ft 451 kts 326°
2026-05-05 15:56 10.99682 -66.34229 38061 ft 450 kts 326°
2026-05-05 15:57 11.03973 -66.37249 38060 ft 450 kts 326°
2026-05-05 15:57 11.09975 -66.41457 38068 ft 450 kts 326°
2026-05-05 15:58 11.14251 -66.44491 38061 ft 449 kts 322°
2026-05-05 15:58 11.18512 -66.49152 38061 ft 451 kts 305°
2026-05-05 15:59 11.22046 -66.54457 38059 ft 452 kts 306°
2026-05-05 15:59 11.25568 -66.59707 38059 ft 451 kts 306°
2026-05-05 16:00 11.29118 -66.64987 38063 ft 450 kts 306°
2026-05-05 16:00 11.32654 -66.70258 38066 ft 449 kts 306°
2026-05-05 16:01 11.36179 -66.75524 38052 ft 450 kts 306°
2026-05-05 16:01 11.39690 -66.80772 38041 ft 451 kts 305°
2026-05-05 16:02 11.43235 -66.86066 38047 ft 451 kts 306°
2026-05-05 16:02 11.46752 -66.91328 38038 ft 451 kts 305°
2026-05-05 16:03 11.50303 -66.96631 38022 ft 453 kts 305°
2026-05-05 16:03 11.53861 -67.01948 38030 ft 454 kts 305°
2026-05-05 16:04 11.57425 -67.07284 38041 ft 454 kts 306°
2026-05-05 16:04 11.60952 -67.12573 38053 ft 453 kts 305°
2026-05-05 16:05 11.64520 -67.17924 38042 ft 453 kts 305°
2026-05-05 16:05 11.68054 -67.23209 38054 ft 453 kts 306°
2026-05-05 16:06 11.71603 -67.28532 38045 ft 453 kts 305°
2026-05-05 16:06 11.75142 -67.33854 38052 ft 452 kts 306°
2026-05-05 16:07 11.78650 -67.39132 38045 ft 452 kts 305°
2026-05-05 16:07 11.80419 -67.41789 37815 ft 453 kts 305°
2026-05-05 16:07 11.82190 -67.44450 37091 ft 455 kts 306°
2026-05-05 16:07 11.83979 -67.47135 36143 ft 457 kts 305°
2026-05-05 16:08 11.85774 -67.49829 35136 ft 460 kts 305°
2026-05-05 16:08 11.87592 -67.52555 34012 ft 467 kts 306°
2026-05-05 16:08 11.89416 -67.55295 32742 ft 462 kts 306°
2026-05-05 16:08 11.91205 -67.57990 31566 ft 455 kts 305°
2026-05-05 16:09 11.92948 -67.60610 30471 ft 447 kts 305°
2026-05-05 16:09 11.94687 -67.63226 29022 ft 445 kts 305°
2026-05-05 16:09 11.96458 -67.65891 27127 ft 462 kts 305°
2026-05-05 16:09 11.98281 -67.68638 25515 ft 469 kts 306°
2026-05-05 16:10 12.00107 -67.71395 24370 ft 466 kts 305°
2026-05-05 16:10 12.01905 -67.74112 23332 ft 453 kts 306°
2026-05-05 16:10 12.03626 -67.76722 21660 ft 443 kts 305°
2026-05-05 16:10 12.05093 -67.79484 20005 ft 442 kts 294°
2026-05-05 16:11 12.06033 -67.82478 18418 ft 443 kts 283°
2026-05-05 16:11 12.05435 -67.91771 14518 ft 439 kts 252°
2026-05-05 16:12 12.04623 -67.94765 13773 ft 435 kts 253°
2026-05-05 16:12 12.03074 -68.00626 12111 ft 424 kts 253°
2026-05-05 16:13 12.00816 -68.09140 10333 ft 387 kts 252°
2026-05-05 16:13 12.00133 -68.11697 10210 ft 365 kts 252°
2026-05-05 16:13 11.99486 -68.14115 10219 ft 338 kts 252°
2026-05-05 16:14 11.98342 -68.18378 10226 ft 297 kts 252°
2026-05-05 16:14 11.97257 -68.22380 9935 ft 289 kts 251°
2026-05-05 16:15 11.96191 -68.26318 9691 ft 286 kts 252°
2026-05-05 16:15 11.95222 -68.30259 9344 ft 288 kts 261°
2026-05-05 16:16 11.95594 -68.34245 8645 ft 274 kts 282°
2026-05-05 16:16 11.96396 -68.37951 8102 ft 264 kts 281°
2026-05-05 16:17 11.97157 -68.41582 7281 ft 257 kts 281°
2026-05-05 16:17 11.97534 -68.43356 6786 ft 255 kts 282°
2026-05-05 16:18 11.99516 -68.46300 5714 ft 253 kts 327°
2026-05-05 16:18 12.01093 -68.47036 5293 ft 245 kts 350°
2026-05-05 16:18 12.04355 -68.47131 4533 ft 228 kts
2026-05-05 16:19 12.05907 -68.47085 4176 ft 223 kts
2026-05-05 16:19 12.07452 -68.47042 3823 ft 220 kts
2026-05-05 16:19 12.10453 -68.46960 3139 ft 212 kts
2026-05-05 16:20 12.13058 -68.46152 2503 ft 188 kts 57°
2026-05-05 16:20 12.13566 -68.43779 2330 ft 174 kts 95°
2026-05-05 16:21 12.13493 -68.41323 2189 ft 171 kts 93°
2026-05-05 16:22 12.13412 -68.38152 1992 ft 124 kts 95°
2026-05-05 16:22 12.13365 -68.36481 1678 ft 114 kts 94°
2026-05-05 16:23 12.13318 -68.34876 1371 ft 112 kts 95°
2026-05-05 16:23 12.13295 -68.34084 1223 ft 111 kts 94°
2026-05-05 16:23 12.13249 -68.32494 932 ft 112 kts 95°
2026-05-05 16:24 12.13225 -68.31715 798 ft 111 kts 94°
2026-05-05 16:24 12.13202 -68.30922 637 ft 112 kts 96°
2026-05-05 16:24 12.13175 -68.29325 242 ft 113 kts 96°
2026-05-05 16:25 12.13139 -68.28528 114 ft 111 kts 93°
2026-05-05 16:25 12.13092 -68.27094 23 ft 81 kts 92°
2026-05-05 16:25 12.13079 -68.26698 22 ft 31 kts 92°
2026-05-05 16:26 12.13077 -68.26598 22 ft 6 kts 271°
2026-05-05 16:26 12.13082 -68.26765 23 ft 16 kts 271°
2026-05-05 16:27 12.13086 -68.26887 21 ft 18 kts 272°
2026-05-05 16:27 12.13090 -68.27025 21 ft 20 kts 271°
2026-05-05 16:27 12.13095 -68.27170 22 ft 19 kts 271°
2026-05-05 16:27 12.13098 -68.27293 22 ft 17 kts 271°
2026-05-05 16:28 12.13103 -68.27421 22 ft 18 kts 271°
2026-05-05 16:28 12.13108 -68.27545 23 ft 11 kts 271°
2026-05-05 16:28 12.13145 -68.27606 23 ft 12 kts 349°
2026-05-05 16:28 12.13204 -68.27605 23 ft 10 kts
2026-05-05 16:29 12.13271 -68.27611 22 ft 7 kts 299°
2026-05-05 16:29 12.13261 -68.27620 24 ft 0 kts 188°